Probability
0 0 0 0 0 0 0 0 0 0 0 0 0 0 0 0 0 0 0 0 0 0 0 0 0 0 0 0 0 0 0 0 0 0 0 0 0 0 0 0 0 0 0 0
0 0 0 0 0 0 0 0 0 0 0 0 0 0 0 0 0 0 0 0 0 0 0 0 0 0 0 0 0 0 0 0 0 0 0 0 0 0 0 0 0 0 0 0
0 0 0 0 0 0 0 0 0 0 0 0 0 0 0 0 0 0 0 0 0 0 0 0 0 0 0 0 0 0 0 0 0 0 0 0 0 0 0 0 0 0 0 0
0 0 0 0 0 0 0 0 0 0 0 0 0 0 0 0 0 0 0 0 0 0 0 0 0 0 0 0 0 0 0 0 0 0 0 0 0 0 0 0 0 0 0 0
0 0 0 0 0 0 0 0 0 0 0 0 0 0 0 0 0 0 0 0 0 0 0 0 0 0 0 0 0 0 0 0 0 0 0 0 0 0 0 0 0 0 0 0
0 0 0 0 0 0 0 0 0 0 0 0 0 0 0 0 0 0 0 0 0 0 0 0 0 0 0 0 0 0 0 0 0 0 0 0 0 0 0 0 0 0 0 0
0 0 0 0 0 0 0 0 0 0 0 0 0 0 0 0 0 0 0 0 0 0 0 0 0 0 0 0 0 0 0 0 0 0 0 0 0 0 0 0 0 0 0 0
0 0 0 0 0 0 0 0 0 0 0 0 0 0 0 0 0 0 0 0 0 0 0 0 0 0 0 0 0 0 0 0 0 0 0 0 0 0 0 0 0 0 0 0
0 0 0 0 0 0 0 0 0 0 0 0 0 0 0 0 0 0 0 0 0 0 0 0 0 0 0 0 0 0 0 0 0 0 0 0 0 0 0 0 0 0 0 0
0 0 0 0 0 0 0 0 0 0 0 0 0 0 0 0 0 0 0 0 0 0 0 0 0 0 0 0 0 0 0 0 0 0 0 0 0 0 0 0 0 0 0 0
0 0 0 0 0 0 0 0 0 0 0 0 0 0 0 0 0 0 0 0 0 0 0 0 0 0 0 0 0 0 0 0 0 0 0 0 0 0 0 0 0 0 0 0
0 0 0 0 0 0 0 0 0 0 0 0 0 0 0 0 0 0 0 0 0 0 0 0 0 0 0 0 0 0 0 0 0 0 0 0 0 0 0 0 0 0 0 0
0 0 0 0 0 0 0 0 0 0 0 0 0 0 0 0 0 0 0 0 0 0 0 0 0 0 0 0 0 0 0 0 0 0 0 0 0 0 0 0 0 0 0 0
0 0 0 0 0 0 0 0 0 0 0 0 0 0 0 0 0 0 0 0 0 0 0 0 0 0 0 0 0 0 0 0 0 0 0 0 0 0 0 0 0 0 0 0
0 0 0 0 0 0 0 0 0 0 0 0 0 0 0 0 0 0 0 0 0 0 0 0 0 0 0 0 0 0 0 0 0 0 0 0 0 0 0 0 0 0 0 0
0 0 0 0 0 0 0 0 0 0 0 0 0 0 0 0 0 0 0 0 0 0 0 0 0 0 0 0 0 0 0 0 0 0 0 0 0 0 0 0 0 0 0 0
0 0 0 0 0 0 0 0 0 0 0 0 0 0 0 0 0 0 0 0 0 0 0 0 0 0 0 0 0 0 0 0 0 0 0 0 0 0 0 0 0 0 0 0
0 0 0 0 0 0 0 0 0 0 0 0 0 0 0 0 0 0 0 0 0 0 0 0 0 0 0 0 0 0 0 0 0 0 0 0 0 0 0 0 0 0 0 0
0 0 0 0 0 0 0 0 0 0 0 0 0 0 0 0 0 0 0 0 0 0 0 0 0 0 0 0 0 0 0 0 0 0 0 0 0 0 0 0 0 0 0 0
0 0 0 0 0 0 0 0 0 0 0 0 0 0 0 0 0 0 0 0 0 0 0 0 0 0 0 0 0 0 0 0 0 0 0 0 0 0 0 0 0 0 0 0
0 0 0 0 0 0 0 0 0 0 0 0 0 0 0 0 0 0 0 0 0 0 0 0 0 0 0 0 0 0 0 0 0 0 0 0 0 0 0 0 0 0 0 0
0 0 0 0 0 0 0 0 0 0 0 0 0 0 0 0 0 0 0 0 0 0 0 0 0 0 0 0 0 0 0 0 0 0 0 0 0 0 0 0 0 0 0 0
0 0 0 0 0 0 0 0 0 0 0 0 0 0 0 0 0 0 0 0 0 0 0 0 0 0 0 0 0 0 0 0 0 0 0 0 0 0 0 0 0 0 0 0
0 0 0 0 0 0 0 0 0 0 0 0 0 0 0 0 0 0 0 0 0 0 0 0 0 0 0 0 0 0 0 0 0 0 0 0 0 0 0 0 0 0 0 0
0 0 0 0 0 0 0 0 0 0 0 0 0 0 0 0 0 0 0 0 0 0 0 0 0 0 0 0 0 0 0 0 0 0 0 0 0 0 0 0 0 0 0 0
0 0 0 0 0 0 0 0 0 0 0 0 0 0 0 0 0 0 0 0 0 0 0 0 0 0 0 0 0 0 0 0 0 0 0 0 0 0 0 0 0 0 0 0
Height
5758 5762 5768 5773 5776 5779 5780 5783 5786 5789 5789 5790 5793 5796 5800 5800 5801 5803 5804 5805 5806 5807 5807 5807 5808 5808 5808 5808 5807 5807 5806 5805 5805 5804 5803 5802 5801 5799 5798 5796 5795 5793 5792 5790
5749 5754 5761 5763 5765 5768 5771 5774 5777 5780 5780 5781 5783 5787 5791 5792 5793 5794 5795 5796 5797 5798 5798 5799 5799 5799 5800 5800 5799 5799 5798 5797 5797 5796 5795 5794 5793 5791 5790 5789 5787 5786 5784 5782
5740 5749 5751 5753 5756 5759 5763 5766 5769 5771 5771 5772 5774 5778 5783 5785 5784 5785 5786 5786 5787 5788 5789 5790 5790 5790 5790 5791 5790 5790 5789 5789 5788 5787 5787 5786 5784 5783 5782 5781 5779 5778 5776 5775
5730 5736 5740 5743 5747 5751 5754 5758 5760 5761 5763 5764 5765 5766 5775 5776 5777 5776 5776 5776 5777 5779 5779 5780 5780 5780 5780 5781 5781 5781 5780 5780 5780 5779 5778 5777 5776 5775 5774 5773 5771 5770 5768 5767
5722 5728 5732 5736 5741 5744 5746 5749 5751 5752 5753 5755 5757 5756 5764 5768 5768 5767 5767 5767 5767 5768 5769 5770 5770 5770 5770 5771 5771 5771 5771 5771 5770 5770 5769 5769 5768 5767 5765 5764 5763 5761 5760 5758
5713 5717 5722 5727 5732 5735 5737 5740 5742 5743 5744 5746 5750 5749 5753 5758 5759 5759 5758 5757 5757 5758 5759 5760 5760 5761 5761 5761 5762 5762 5762 5762 5761 5761 5760 5760 5759 5758 5757 5756 5754 5753 5751 5750
5702 5708 5713 5719 5723 5726 5730 5733 5734 5734 5736 5738 5741 5741 5745 5748 5748 5749 5749 5748 5748 5748 5749 5750 5751 5751 5752 5752 5752 5752 5752 5753 5752 5752 5752 5751 5750 5749 5748 5747 5746 5744 5743 5741
5695 5700 5706 5711 5716 5719 5722 5724 5727 5728 5729 5730 5730 5733 5738 5738 5738 5738 5739 5739 5739 5739 5740 5741 5741 5742 5742 5743 5743 5743 5743 5743 5743 5743 5743 5742 5742 5741 5740 5738 5737 5735 5733 5731
5687 5693 5699 5704 5708 5711 5713 5715 5719 5720 5719 5720 5721 5726 5730 5731 5729 5729 5729 5730 5730 5731 5731 5731 5732 5732 5733 5733 5734 5734 5734 5734 5734 5734 5734 5733 5733 5732 5731 5729 5727 5726 5724 5721
5679 5684 5689 5693 5697 5700 5704 5707 5709 5710 5710 5711 5714 5718 5722 5722 5721 5720 5720 5720 5721 5722 5722 5723 5723 5723 5724 5724 5725 5725 5726 5726 5725 5725 5725 5724 5724 5723 5722 5720 5718 5716 5714 5711
5669 5674 5679 5683 5687 5693 5696 5699 5701 5703 5704 5705 5706 5712 5713 5713 5713 5713 5712 5712 5712 5713 5714 5714 5715 5715 5715 5716 5716 5717 5717 5717 5717 5717 5716 5716 5715 5714 5712 5710 5708 5706 5704 5701
5660 5664 5668 5674 5680 5683 5686 5690 5693 5695 5696 5697 5698 5704 5704 5705 5705 5704 5704 5704 5704 5705 5705 5706 5706 5707 5707 5707 5708 5708 5708 5708 5708 5708 5707 5707 5706 5704 5703 5701 5699 5696 5694 5691
5649 5653 5657 5662 5669 5673 5677 5681 5684 5687 5688 5688 5690 5696 5696 5697 5696 5696 5696 5696 5696 5697 5697 5698 5698 5699 5699 5699 5699 5700 5700 5700 5699 5699 5698 5698 5696 5695 5693 5691 5689 5686 5683 5680
5639 5643 5649 5656 5661 5666 5670 5674 5676 5677 5678 5680 5684 5687 5688 5688 5688 5688 5688 5688 5688 5689 5690 5690 5690 5690 5691 5691 5691 5691 5691 5691 5691 5690 5689 5688 5687 5685 5683 5681 5678 5675 5672 5669
5628 5634 5641 5647 5652 5657 5660 5664 5666 5668 5671 5674 5677 5678 5681 5679 5679 5679 5679 5680 5681 5682 5682 5682 5682 5683 5683 5683 5683 5682 5682 5682 5682 5681 5680 5678 5677 5675 5673 5670 5668 5664 5661 5658
5621 5627 5633 5638 5642 5646 5649 5654 5657 5660 5663 5665 5668 5671 5673 5671 5670 5671 5672 5672 5673 5674 5674 5674 5674 5674 5674 5674 5674 5674 5673 5673 5672 5671 5670 5669 5667 5665 5662 5660 5657 5653 5650 5646
5613 5620 5625 5630 5634 5636 5639 5647 5650 5653 5656 5658 5659 5664 5664 5663 5663 5663 5664 5665 5666 5666 5667 5667 5667 5666 5666 5666 5666 5665 5664 5664 5663 5662 5660 5659 5657 5654 5652 5649 5646 5642 5638 5635
5604 5610 5615 5620 5624 5626 5637 5640 5642 5645 5648 5650 5652 5655 5655 5655 5655 5656 5657 5658 5658 5659 5659 5659 5659 5658 5658 5658 5657 5656 5655 5655 5653 5652 5650 5649 5646 5644 5641 5638 5634 5631 5627 5623
5595 5601 5606 5611 5615 5620 5627 5633 5635 5637 5640 5643 5644 5646 5647 5647 5648 5649 5650 5650 5651 5651 5651 5651 5650 5650 5650 5649 5648 5647 5646 5645 5644 5642 5640 5638 5636 5633 5630 5627 5623 5619 5615 5610
5586 5592 5598 5603 5607 5612 5622 5625 5627 5630 5633 5636 5636 5638 5639 5639 5641 5643 5643 5643 5643 5643 5643 5643 5642 5642 5641 5640 5639 5638 5637 5636 5634 5632 5630 5628 5625 5622 5619 5615 5611 5607 5603 5598
5577 5583 5589 5595 5599 5605 5612 5617 5619 5624 5628 5628 5628 5630 5631 5633 5634 5635 5635 5635 5635 5635 5635 5634 5634 5633 5633 5632 5630 5629 5627 5626 5624 5622 5619 5617 5614 5610 5607 5603 5599 5595 5590 5586
5570 5576 5582 5587 5591 5600 5605 5609 5613 5616 5617 5619 5620 5622 5624 5625 5626 5627 5627 5627 5627 5627 5627 5626 5625 5625 5624 5622 5621 5619 5617 5616 5613 5611 5609 5606 5602 5599 5595 5591 5587 5582 5578 5573
5562 5570 5576 5582 5590 5594 5598 5601 5604 5606 5609 5611 5613 5615 5617 5618 5618 5619 5619 5619 5619 5619 5618 5617 5617 5615 5614 5612 5611 5609 5607 5605 5603 5600 5597 5594 5591 5587 5583 5579 5575 5570 5564 5559
5556 5562 5568 5574 5580 5585 5589 5592 5595 5598 5601 5602 5605 5607 5609 5610 5610 5611 5611 5611 5610 5610 5609 5608 5607 5606 5604 5602 5601 5599 5597 5594 5592 5589 5586 5583 5579 5575 5571 5566 5562 5556 5550 5544
5548 5554 5559 5565 5572 5576 5580 5584 5587 5589 5592 5594 5597 5599 5600 5601 5602 5602 5602 5602 5601 5601 5600 5599 5598 5596 5594 5593 5591 5589 5586 5584 5581 5578 5574 5571 5567 5563 5558 5554 5548 5542 5536 5529
5540 5547 5553 5559 5565 5569 5573 5576 5578 5581 5583 5586 5588 5590 5591 5592 5593 5593 5593 5593 5592 5591 5590 5589 5588 5586 5584 5583 5580 5578 5575 5572 5569 5566 5562 5559 5554 5550 5545 5540 5535 5528 5521 5514
Wind_Speed
45 45 42 40 40 40 41 42 41 40 42 43 43 42 40 41 42 41 40 39 39 39 39 39 38 37 37 36 36 36 36 36 36 36 35 35 34 34 33 33 34 34 34 34
45 44 39 40 41 42 42 42 41 41 43 45 44 43 40 40 41 42 41 41 41 41 41 41 40 39 38 38 37 37 37 37 37 37 36 36 35 35 34 34 34 34 34 34
44 40 39 41 41 41 41 40 40 40 42 45 46 44 40 38 39 40 41 42 42 42 41 41 41 41 40 39 38 38 37 37 37 36 36 36 35 35 35 35 35 35 34 34
44 43 42 42 41 40 40 39 40 41 42 44 45 46 40 38 38 39 41 42 41 41 42 42 42 42 41 41 40 38 38 37 37 37 36 36 36 36 36 36 36 35 35 35
44 42 41 41 39 39 39 39 39 40 42 43 43 46 41 37 36 37 40 42 42 41 41 41 41 41 41 40 39 39 38 37 37 36 36 36 37 37 36 35 35 36 36 36
45 43 42 40 39 39 38 38 39 40 41 43 40 42 41 35 34 35 37 39 40 41 40 40 40 40 40 39 38 37 37 37 36 36 36 36 36 36 35 35 35 36 36 37
46 44 42 40 39 39 38 37 38 40 41 42 39 40 39 35 33 33 34 36 38 39 39 39 39 39 38 37 37 37 36 36 36 36 36 36 36 36 36 36 36 37 37 38
44 43 40 38 37 36 36 37 38 39 40 40 39 38 34 32 31 32 33 34 36 37 38 38 38 37 37 37 36 36 36 35 35 35 35 35 35 36 36 36 37 38 39 39
42 41 38 36 35 36 37 37 36 38 40 40 39 35 30 28 31 32 32 32 33 34 35 35 36 35 35 35 35 35 35 34 34 35 35 34 35 35 36 37 39 39 40 40
41 41 39 37 37 38 37 36 37 39 40 40 38 33 28 27 28 29 30 30 30 31 32 33 34 34 34 33 33 34 34 34 34 34 34 35 35 36 37 38 39 40 40 41
43 43 41 40 39 37 37 37 37 38 39 39 37 33 27 26 26 27 28 29 29 29 30 30 31 32 32 32 32 33 33 33 33 33 34 34 35 37 38 38 39 40 41 42
42 43 44 42 39 39 39 38 37 38 37 36 36 34 28 26 27 28 29 29 29 29 29 29 29 29 30 30 31 31 32 32 33 34 35 36 36 37 37 38 39 41 43 44
42 45 46 45 43 41 40 37 37 37 37 37 36 32 27 25 26 28 28 29 29 29 29 29 28 29 29 30 31 31 32 33 33 34 34 35 36 37 38 40 42 43 44 45
42 45 45 42 39 37 37 36 36 37 38 36 33 29 27 26 27 27 28 28 28 27 28 28 29 29 30 30 31 32 32 33 34 34 35 35 37 39 40 41 42 43 44 44
43 44 43 41 39 38 37 37 37 37 36 34 30 29 24 26 28 28 28 28 27 26 27 28 29 30 30 31 32 32 33 34 34 35 35 36 38 39 40 41 42 43 44 45
41 40 40 40 39 38 38 37 37 36 34 32 31 27 23 27 29 29 28 28 27 26 27 28 29 29 30 30 31 32 33 34 34 35 36 37 39 40 41 42 42 43 44 45
41 40 39 39 38 39 40 35 34 33 32 32 31 25 25 27 28 29 28 27 26 26 27 28 28 29 29 30 31 32 33 33 34 36 37 38 39 40 41 42 43 44 45 47
44 42 40 40 39 41 35 32 32 32 32 32 30 27 26 27 28 27 27 26 26 26 27 27 28 29 30 30 31 32 33 34 34 35 36 38 39 40 41 42 44 45 46 47
45 43 42 41 40 40 36 32 31 32 30 29 29 27 26 27 27 26 26 26 26 27 27 27 28 28 29 30 31 32 33 34 35 36 36 38 39 41 42 44 45 45 46 47
45 44 43 41 41 40 34 32 31 31 29 27 28 27 27 27 27 25 25 25 26 26 26 27 28 29 29 30 31 32 34 34 35 36 37 39 40 42 43 44 45 46 47 48
46 45 44 42 40 38 34 31 30 30 27 27 28 28 27 26 25 25 25 25 26 26 27 27 28 29 30 31 32 33 34 35 36 37 38 39 41 42 43 44 45 46 48 49
44 44 42 41 41 36 32 30 28 27 28 28 28 27 27 26 26 25 25 25 26 26 27 28 28 29 30 32 33 34 34 35 36 37 39 40 41 42 43 44 46 47 49 51
45 43 41 39 36 32 30 29 28 29 29 28 28 28 27 27 26 26 26 26 27 27 28 29 30 31 32 33 33 33 34 35 37 38 39 40 41 42 44 45 47 48 50 52
43 41 40 39 36 32 31 29 29 29 29 29 29 29 28 28 27 27 27 28 28 29 29 29 30 31 32 32 33 34 35 36 36 38 39 41 42 43 44 46 48 50 52 55
41 40 39 37 35 33 31 30 29 30 30 30 30 30 29 29 29 29 29 29 29 30 30 31 31 32 32 33 34 34 35 36 38 39 40 41 43 44 46 48 50 52 55 57
40 38 37 34 32 32 31 31 32 32 32 31 30 30 30 30 29 29 29 30 30 31 31 31 32 32 33 33 34 35 36 37 39 40 41 43 44 46 48 50 52 54 57 60
Wind_Direction
238 239 240 242 242 242 242 243 243 244 247 248 249 249 248 250 252 253 254 255 255 256 258 260 261 263 264 266 268 271 272 273 274 276 277 278 279 279 279 280 280 280 281 282
238 239 240 240 240 241 242 243 244 245 248 250 250 250 250 251 254 255 256 257 257 257 259 261 263 264 265 267 269 270 271 272 273 274 276 277 278 278 279 279 279 280 280 281
239 239 238 239 240 242 243 245 246 247 248 251 253 252 252 253 255 257 258 258 258 259 261 262 263 264 266 267 269 270 271 271 272 272 274 275 276 277 278 278 279 280 280 281
235 235 235 237 239 241 243 245 247 249 249 251 254 255 250 254 257 259 259 259 260 260 261 262 263 264 265 266 268 269 270 270 270 271 272 273 275 276 277 278 279 280 280 281
235 236 236 237 239 241 244 245 248 250 252 253 254 259 255 254 256 259 261 262 262 262 262 262 263 263 264 266 267 267 268 268 268 269 271 273 274 276 276 277 278 279 280 281
232 232 233 234 236 239 242 245 248 251 253 254 255 260 260 259 259 258 260 262 263 263 263 263 263 263 264 265 265 265 265 266 267 268 270 271 273 274 275 276 278 279 281 282
232 233 233 233 235 238 242 245 249 251 254 257 258 260 263 264 263 261 259 260 262 263 263 263 263 263 263 263 264 264 264 265 266 267 269 270 271 273 275 276 278 279 281 282
233 235 234 235 238 240 242 244 248 253 256 259 259 259 261 264 266 265 263 261 262 263 263 263 263 263 263 263 263 264 263 264 265 266 268 269 271 273 274 276 278 280 282 284
232 235 234 235 235 237 239 243 248 253 256 259 261 261 260 266 268 268 267 265 263 263 263 263 262 262 263 263 263 263 263 264 265 266 266 268 270 273 275 277 279 281 282 285
231 234 232 231 232 234 238 241 244 249 255 260 262 263 266 266 268 269 269 268 265 263 262 262 263 263 263 263 263 263 264 264 264 265 266 268 271 274 276 278 280 281 283 285
228 231 232 231 232 235 238 241 244 249 254 260 264 266 265 268 269 269 269 268 266 264 263 263 263 264 264 264 264 264 263 263 264 265 267 270 272 275 276 278 279 281 284 286
226 230 232 232 232 234 237 239 243 248 254 258 262 266 268 269 269 269 268 267 267 266 264 264 264 264 264 263 263 263 263 263 264 266 268 270 272 274 276 278 280 283 285 287
222 226 229 230 230 231 235 239 243 248 252 255 260 266 271 269 267 267 267 267 267 266 266 265 265 264 264 264 264 264 264 265 266 268 270 272 274 275 278 280 282 284 286 288
222 226 228 232 235 235 237 239 242 246 249 254 260 266 270 269 266 265 265 265 267 268 268 267 266 266 266 266 266 266 266 268 269 271 272 273 275 277 279 281 284 285 287 289
222 225 227 230 233 235 237 238 240 244 249 255 259 262 266 266 264 263 265 266 267 268 267 267 267 267 267 267 267 267 268 271 271 272 273 275 278 280 282 284 285 286 288 290
222 225 227 229 231 233 235 237 240 244 249 255 259 261 263 260 262 265 267 268 268 268 267 268 268 268 268 268 269 270 271 272 272 273 275 277 279 281 283 285 286 288 289 291
224 225 227 228 229 233 235 237 243 247 250 255 258 259 257 260 263 265 267 269 269 269 269 268 269 269 269 269 270 271 272 272 275 276 277 279 281 283 285 286 288 289 291 292
220 222 225 228 230 235 237 237 242 246 249 253 257 257 258 261 263 266 268 269 270 270 270 269 269 269 269 270 271 272 273 275 276 277 279 281 282 285 286 287 289 290 292 293
219 221 225 229 233 236 237 238 241 245 247 251 255 256 257 260 263 266 268 270 270 270 270 269 268 269 269 271 273 274 275 277 278 279 280 281 283 285 287 288 289 291 292 293
219 222 226 230 234 237 236 237 240 244 246 249 252 254 256 260 264 267 268 270 271 271 270 271 270 271 272 273 274 276 278 279 279 280 281 283 284 286 287 289 290 292 293 294
220 223 228 231 235 237 236 236 239 244 247 247 250 253 257 261 265 267 268 270 272 272 273 273 274 274 274 275 276 278 280 280 281 282 283 285 286 287 288 290 291 292 294 294
223 226 229 231 234 235 237 238 241 244 244 246 249 253 258 261 265 267 269 271 273 273 274 275 276 277 277 278 278 279 280 281 282 283 285 287 288 289 290 291 292 293 295 295
223 226 230 233 236 238 238 240 240 241 245 248 250 253 257 261 265 268 269 272 274 275 277 277 278 279 279 279 280 280 281 282 283 285 286 288 289 290 290 291 293 294 295 296
223 226 229 231 233 235 237 239 241 243 247 249 251 253 257 262 265 268 271 272 274 276 278 279 280 280 280 280 280 281 283 284 285 286 288 289 290 291 292 293 294 295 297 298
222 225 228 231 232 235 237 240 243 245 248 250 252 255 259 263 266 270 272 273 274 277 279 280 281 281 281 282 283 284 285 285 286 288 289 290 291 292 294 295 296 297 299 300
220 223 226 230 232 236 238 240 242 245 248 251 254 258 260 264 267 270 272 273 275 277 280 280 281 281 282 283 284 285 286 287 288 290 291 292 293 294 295 297 298 299 300 301